GFA320 OMDB-OEJN

Flight info

Callsign GFA320
Flight time 2h 50m
Altitude 34000
Route SENP2F SENPA N571 ALPOB L768 ULADA T136 OTISU N112 GETOT Q212 KIA G782 VEMEM VEME2L
Aircraft A320/M-V/N

Departure

Time 2026-04-26 09:14
Airport Dubai International Airport (OMDB)

Arrival

Time 2026-04-26 12:05
Airport King Abdulaziz International Airport (OEJN)
Time Latitude Longitude Altitude Speed Heading
2026-04-26 08:49 25.25637 55.37250 27 ft 0 kts 29°
2026-04-26 08:50 25.25638 55.37250 27 ft 0 kts 29°
2026-04-26 08:55 25.25637 55.37250 27 ft 0 kts 29°
2026-04-26 08:58 25.25605 55.37230 27 ft 7 kts 29°
2026-04-26 08:58 25.25571 55.37201 28 ft 6 kts 74°
2026-04-26 08:58 25.25570 55.37188 28 ft 0 kts 116°
2026-04-26 09:02 25.25570 55.37189 28 ft 1 kts 116°
2026-04-26 09:02 25.25565 55.37198 28 ft 0 kts 116°
2026-04-26 09:06 25.25558 55.37215 28 ft 12 kts 116°
2026-04-26 09:07 25.25485 55.37353 29 ft 22 kts 127°
2026-04-26 09:07 25.25383 55.37387 34 ft 15 kts 163°
2026-04-26 09:07 25.25312 55.37476 37 ft 19 kts 121°
2026-04-26 09:07 25.25234 55.37619 36 ft 24 kts 122°
2026-04-26 09:08 25.25142 55.37794 37 ft 29 kts 120°
2026-04-26 09:08 25.25046 55.37962 36 ft 18 kts 122°
2026-04-26 09:08 25.24944 55.38028 39 ft 7 kts 218°
2026-04-26 09:08 25.24954 55.38038 38 ft 7 kts 224°
2026-04-26 09:09 25.24963 55.38047 38 ft 0 kts 224°
2026-04-26 09:09 25.24970 55.38056 36 ft 6 kts 218°
2026-04-26 09:09 25.24972 55.38077 37 ft 8 kts 123°
2026-04-26 09:09 25.24946 55.38125 36 ft 2 kts 155°
2026-04-26 09:10 25.24922 55.38122 37 ft 4 kts 201°
2026-04-26 09:10 25.24890 55.38103 39 ft 0 kts 209°
2026-04-26 09:12 25.24879 55.38095 39 ft 8 kts 209°
2026-04-26 09:12 25.24831 55.38048 40 ft 10 kts 238°
2026-04-26 09:13 25.24836 55.37966 39 ft 12 kts 296°
2026-04-26 09:13 25.24935 55.37788 39 ft 59 kts 301°
2026-04-26 09:13 25.25267 55.37176 37 ft 122 kts 302°
2026-04-26 09:13 25.25792 55.36227 84 ft 163 kts 300°
2026-04-26 09:14 25.26378 55.35155 652 ft 164 kts 300°
2026-04-26 09:14 25.26976 55.34061 1286 ft 168 kts 298°
2026-04-26 09:14 25.27586 55.32919 1869 ft 176 kts 302°
2026-04-26 09:14 25.28198 55.31713 2621 ft 183 kts 298°
2026-04-26 09:15 25.28700 55.30362 3220 ft 202 kts 291°
2026-04-26 09:15 25.29152 55.28803 3798 ft 221 kts 287°
2026-04-26 09:15 25.29522 55.27154 4664 ft 221 kts 283°
2026-04-26 09:15 25.29810 55.25444 5286 ft 237 kts 280°
2026-04-26 09:16 25.30051 55.23560 5660 ft 262 kts 277°
2026-04-26 09:16 25.30233 55.21491 6127 ft 270 kts 275°
2026-04-26 09:16 25.30378 55.19485 7221 ft 253 kts 275°
2026-04-26 09:16 25.30396 55.17591 8285 ft 244 kts 265°
2026-04-26 09:17 25.30234 55.15717 9035 ft 247 kts 265°
2026-04-26 09:17 25.30076 55.13825 9764 ft 248 kts 265°
2026-04-26 09:17 25.29924 55.11911 10390 ft 251 kts 265°
2026-04-26 09:17 25.29775 55.09977 11013 ft 254 kts 265°
2026-04-26 09:18 25.29625 55.08023 11629 ft 256 kts 265°
2026-04-26 09:18 25.29475 55.06047 12231 ft 259 kts 264°
2026-04-26 09:18 25.29322 55.04051 12828 ft 262 kts 264°
2026-04-26 09:18 25.29167 55.02039 13434 ft 264 kts 264°
2026-04-26 09:19 25.29013 55.00035 13977 ft 266 kts 264°
2026-04-26 09:19 25.28852 54.97966 14547 ft 267 kts 264°
2026-04-26 09:19 25.28694 54.95939 15077 ft 269 kts 264°
2026-04-26 09:19 25.28540 54.93878 15628 ft 270 kts 266°
2026-04-26 09:20 25.28459 54.91794 16178 ft 272 kts 268°
2026-04-26 09:20 25.28417 54.89701 16723 ft 273 kts 269°
2026-04-26 09:20 25.28377 54.87595 17262 ft 275 kts 268°
2026-04-26 09:20 25.28328 54.85479 17789 ft 277 kts 268°
2026-04-26 09:21 25.28271 54.83350 18293 ft 278 kts 268°
2026-04-26 09:21 25.28210 54.81209 18749 ft 279 kts 268°
2026-04-26 09:21 25.28148 54.79061 19194 ft 280 kts 268°
2026-04-26 09:21 25.28084 54.76903 19658 ft 282 kts 268°
2026-04-26 09:22 25.28139 54.74736 20079 ft 283 kts 276°
2026-04-26 09:22 25.28513 54.72589 20501 ft 286 kts 284°
2026-04-26 09:22 25.29071 54.70470 20914 ft 288 kts 283°
2026-04-26 09:22 25.29620 54.68338 21330 ft 289 kts 283°
2026-04-26 09:23 25.30164 54.66191 21726 ft 291 kts 282°
2026-04-26 09:23 25.30708 54.64036 22110 ft 292 kts 282°
2026-04-26 09:23 25.31254 54.61870 22496 ft 293 kts 282°
2026-04-26 09:23 25.31803 54.59692 22863 ft 295 kts 282°
2026-04-26 09:24 25.32363 54.57467 22991 ft 306 kts 282°
2026-04-26 09:24 25.32885 54.55171 23236 ft 309 kts 276°
2026-04-26 09:24 25.33059 54.52812 23596 ft 307 kts 266°
2026-04-26 09:24 25.32842 54.50467 23903 ft 307 kts 257°
2026-04-26 09:25 25.32451 54.48173 24208 ft 308 kts 258°
2026-04-26 09:25 25.32059 54.45804 24514 ft 310 kts 258°
2026-04-26 09:25 25.31679 54.43454 24819 ft 312 kts 259°
2026-04-26 09:25 25.31468 54.41067 25077 ft 315 kts 274°
2026-04-26 09:26 25.32022 54.38704 25298 ft 322 kts 287°
2026-04-26 09:26 25.32852 54.36393 25559 ft 324 kts 288°
2026-04-26 09:26 25.33698 54.34117 25826 ft 325 kts 288°
2026-04-26 09:26 25.34561 54.31804 26084 ft 326 kts 288°
2026-04-26 09:27 25.35424 54.29479 26330 ft 327 kts 288°
2026-04-26 09:27 25.36287 54.27140 26578 ft 329 kts 288°
2026-04-26 09:27 25.37148 54.24798 26823 ft 330 kts 288°
2026-04-26 09:27 25.38024 54.22413 27063 ft 331 kts 288°
2026-04-26 09:28 25.38890 54.20050 27282 ft 332 kts 288°
2026-04-26 09:28 25.39749 54.17704 27509 ft 334 kts 288°
2026-04-26 09:28 25.40620 54.15323 27734 ft 335 kts 288°
2026-04-26 09:28 25.41496 54.12927 27953 ft 336 kts 288°
2026-04-26 09:29 25.42374 54.10526 28171 ft 338 kts 288°
2026-04-26 09:29 25.43254 54.08115 28385 ft 339 kts 288°
2026-04-26 09:29 25.44140 54.05688 28597 ft 340 kts 288°
2026-04-26 09:29 25.45025 54.03261 28813 ft 341 kts 288°
2026-04-26 09:30 25.45912 54.00813 29010 ft 342 kts 286°
2026-04-26 09:30 25.46576 53.98295 29202 ft 341 kts 281°
2026-04-26 09:30 25.47337 53.95789 29376 ft 345 kts 289°
2026-04-26 09:30 25.48228 53.93320 29585 ft 346 kts 288°
2026-04-26 09:31 25.49114 53.90837 29789 ft 347 kts 288°
2026-04-26 09:31 25.50008 53.88348 29986 ft 348 kts 288°
2026-04-26 09:31 25.50908 53.85859 30168 ft 349 kts 289°
2026-04-26 09:31 25.51813 53.83369 30375 ft 349 kts 289°
2026-04-26 09:32 25.52718 53.80881 30570 ft 349 kts 289°
2026-04-26 09:32 25.53639 53.78353 30756 ft 349 kts 289°
2026-04-26 09:32 25.54535 53.75892 30947 ft 349 kts 289°
2026-04-26 09:32 25.55443 53.73396 31144 ft 349 kts 289°
2026-04-26 09:33 25.56361 53.70867 31327 ft 350 kts 289°
2026-04-26 09:33 25.57256 53.68401 31497 ft 350 kts 289°
2026-04-26 09:33 25.58163 53.65899 31679 ft 350 kts 290°
2026-04-26 09:33 25.59083 53.63362 31856 ft 350 kts 290°
2026-04-26 09:34 25.59978 53.60890 32024 ft 350 kts 290°
2026-04-26 09:34 25.60884 53.58386 32191 ft 351 kts 290°
2026-04-26 09:34 25.61791 53.55879 32345 ft 351 kts 290°
2026-04-26 09:34 25.62699 53.53364 32502 ft 351 kts 290°
2026-04-26 09:35 25.63606 53.50854 32659 ft 351 kts 290°
2026-04-26 09:35 25.64513 53.48343 32809 ft 351 kts 290°
2026-04-26 09:35 25.65420 53.45827 32955 ft 352 kts 290°
2026-04-26 09:35 25.66329 53.43307 33094 ft 352 kts 290°
2026-04-26 09:36 25.67235 53.40792 33225 ft 352 kts 290°
2026-04-26 09:36 25.68144 53.38267 33365 ft 352 kts 290°
2026-04-26 09:36 25.69079 53.35761 33481 ft 353 kts 291°
2026-04-26 09:36 25.70005 53.33236 33604 ft 353 kts 290°
2026-04-26 09:37 25.70915 53.30707 33730 ft 353 kts 290°
2026-04-26 09:37 25.71830 53.28181 33846 ft 354 kts 290°
2026-04-26 09:37 25.72757 53.25644 33906 ft 355 kts 291°
2026-04-26 09:38 25.74640 53.20520 33904 ft 362 kts 291°
2026-04-26 09:38 25.76561 53.15301 33907 ft 369 kts 291°
2026-04-26 09:39 25.78515 53.09985 33906 ft 376 kts 291°
2026-04-26 09:39 25.80504 53.04567 33907 ft 382 kts 291°
2026-04-26 09:40 25.82526 52.99051 33911 ft 389 kts 290°
2026-04-26 09:40 25.84582 52.93439 33916 ft 396 kts 290°
2026-04-26 09:41 25.86669 52.87732 33919 ft 402 kts 290°
2026-04-26 09:41 25.88789 52.81924 33920 ft 408 kts 290°
2026-04-26 09:42 25.90931 52.76051 33913 ft 412 kts 290°
2026-04-26 09:42 25.93089 52.70122 33913 ft 415 kts 290°
2026-04-26 09:43 25.94891 52.65166 33923 ft 417 kts 290°
2026-04-26 09:43 25.97061 52.59190 33919 ft 418 kts 290°
2026-04-26 09:44 25.99234 52.53193 33917 ft 418 kts 290°
2026-04-26 09:44 26.01406 52.47191 33916 ft 419 kts 290°
2026-04-26 09:45 26.03580 52.41177 33917 ft 419 kts 290°
2026-04-26 09:45 26.05752 52.35156 33921 ft 419 kts 290°
2026-04-26 09:46 26.07922 52.29133 33921 ft 419 kts 290°
2026-04-26 09:46 26.10088 52.23110 33917 ft 419 kts 290°
2026-04-26 09:47 26.12252 52.17087 33924 ft 419 kts 290°
2026-04-26 09:47 26.14412 52.11062 33923 ft 419 kts 290°
2026-04-26 09:48 26.16570 52.05035 33921 ft 419 kts 290°
2026-04-26 09:48 26.18723 51.99013 33922 ft 419 kts 289°
2026-04-26 09:49 26.20875 51.92985 33921 ft 419 kts 289°
2026-04-26 09:49 26.23002 51.86992 33922 ft 419 kts 289°
2026-04-26 09:50 26.25044 51.80927 33926 ft 418 kts 288°
2026-04-26 09:50 26.27075 51.74853 33924 ft 418 kts 288°
2026-04-26 09:51 26.29110 51.68790 33925 ft 418 kts 288°
2026-04-26 09:51 26.31148 51.62720 33926 ft 418 kts 288°
2026-04-26 09:52 26.33179 51.56662 33929 ft 417 kts 288°
2026-04-26 09:52 26.36219 51.47573 33931 ft 417 kts 288°
2026-04-26 09:53 26.38242 51.41513 33934 ft 417 kts 288°
2026-04-26 09:53 26.40259 51.35457 33933 ft 416 kts 288°
2026-04-26 09:54 26.42274 51.29402 33935 ft 416 kts 288°
2026-04-26 09:54 26.44286 51.23345 33935 ft 416 kts 288°
2026-04-26 09:55 26.46294 51.17292 33939 ft 416 kts 288°
2026-04-26 09:55 26.48299 51.11234 33941 ft 416 kts 288°
2026-04-26 09:56 26.50300 51.05181 33939 ft 416 kts 288°
2026-04-26 09:56 26.52300 50.99122 33942 ft 416 kts 288°
2026-04-26 09:57 26.54296 50.93065 33945 ft 416 kts 288°
2026-04-26 09:57 26.56274 50.87049 33945 ft 415 kts 288°
2026-04-26 09:58 26.58263 50.80994 33950 ft 415 kts 288°
2026-04-26 09:58 26.60250 50.74934 33948 ft 415 kts 287°
2026-04-26 09:59 26.62234 50.68874 33951 ft 415 kts 287°
2026-04-26 09:59 26.64215 50.62811 33950 ft 415 kts 287°
2026-04-26 10:00 26.66191 50.56754 33955 ft 415 kts 287°
2026-04-26 10:00 26.68165 50.50697 33956 ft 414 kts 287°
2026-04-26 10:01 26.70135 50.44639 33948 ft 414 kts 287°
2026-04-26 10:01 26.72101 50.38584 33953 ft 414 kts 287°
2026-04-26 10:02 26.74061 50.32534 33953 ft 414 kts 287°
2026-04-26 10:02 26.76018 50.26483 33949 ft 413 kts 286°
2026-04-26 10:03 26.76648 50.23369 33948 ft 410 kts 275°
2026-04-26 10:03 26.76609 50.20186 33951 ft 411 kts 263°
2026-04-26 10:03 26.75901 50.17084 33955 ft 415 kts 252°
2026-04-26 10:03 26.74549 50.14201 33939 ft 424 kts 240°
2026-04-26 10:04 26.70493 50.09288 33954 ft 434 kts 231°
2026-04-26 10:04 26.66256 50.04498 33948 ft 432 kts 233°
2026-04-26 10:05 26.62202 49.99551 33953 ft 431 kts 234°
2026-04-26 10:05 26.58267 49.94558 33961 ft 428 kts 239°
2026-04-26 10:06 26.55637 49.88760 33941 ft 417 kts 253°
2026-04-26 10:06 26.53627 49.82678 33946 ft 418 kts 253°
2026-04-26 10:07 26.51635 49.76587 33944 ft 418 kts 253°
2026-04-26 10:07 26.49641 49.70482 33946 ft 419 kts 253°
2026-04-26 10:08 26.47642 49.64367 33942 ft 419 kts 253°
2026-04-26 10:08 26.45640 49.58255 33942 ft 419 kts 253°
2026-04-26 10:09 26.43633 49.52141 33941 ft 419 kts 253°
2026-04-26 10:09 26.41626 49.46034 33933 ft 420 kts 253°
2026-04-26 10:10 26.39614 49.39922 33934 ft 420 kts 253°
2026-04-26 10:10 26.37600 49.33815 33937 ft 420 kts 252°
2026-04-26 10:11 26.35581 49.27703 33939 ft 420 kts 253°
2026-04-26 10:11 26.33559 49.21591 33938 ft 421 kts 252°
2026-04-26 10:12 26.31548 49.15471 33945 ft 419 kts 255°
2026-04-26 10:12 26.30604 49.09103 33948 ft 417 kts 264°
2026-04-26 10:13 26.29976 49.02645 33950 ft 420 kts 265°
2026-04-26 10:13 26.29378 48.96229 33952 ft 419 kts 265°
2026-04-26 10:14 26.28783 48.89785 33954 ft 418 kts 264°
2026-04-26 10:14 26.28182 48.83308 33955 ft 417 kts 264°
2026-04-26 10:15 26.27582 48.76875 33961 ft 417 kts 264°
2026-04-26 10:15 26.26980 48.70450 33970 ft 418 kts 264°
2026-04-26 10:16 26.26374 48.64015 33968 ft 417 kts 264°
2026-04-26 10:16 26.25766 48.57583 33974 ft 417 kts 264°
2026-04-26 10:17 26.25155 48.51152 33981 ft 418 kts 264°
2026-04-26 10:17 26.24062 48.44824 33986 ft 420 kts 250°
2026-04-26 10:18 26.21372 48.39020 33993 ft 423 kts 245°
2026-04-26 10:18 26.18557 48.33222 33987 ft 423 kts 246°
2026-04-26 10:19 26.15878 48.27438 33994 ft 423 kts 246°
2026-04-26 10:19 26.13215 48.21607 33995 ft 422 kts 246°
2026-04-26 10:20 26.10985 48.16722 33997 ft 422 kts 248°
2026-04-26 10:20 26.09689 48.12687 33998 ft 417 kts 261°
2026-04-26 10:20 26.09421 48.09484 34009 ft 416 kts 272°
2026-04-26 10:21 26.10402 48.03167 33867 ft 406 kts 279°
2026-04-26 10:21 26.10997 48.00158 33705 ft 392 kts 277°
2026-04-26 10:21 26.11339 47.97227 33641 ft 373 kts 269°
2026-04-26 10:22 26.11071 47.94423 33609 ft 357 kts 257°
2026-04-26 10:22 26.10233 47.91883 33570 ft 345 kts 245°
2026-04-26 10:22 26.08886 47.89720 33505 ft 338 kts 233°
2026-04-26 10:22 26.07196 47.87949 33307 ft 328 kts 233°
2026-04-26 10:23 26.05586 47.86169 32771 ft 326 kts 231°
2026-04-26 10:23 26.03960 47.84411 32269 ft 324 kts 231°
2026-04-26 10:23 26.02332 47.82696 31845 ft 321 kts 230°
2026-04-26 10:23 26.00696 47.81015 31475 ft 325 kts 229°
2026-04-26 10:24 25.97308 47.77641 31826 ft 324 kts 228°
2026-04-26 10:24 25.95617 47.76028 32175 ft 319 kts 227°
2026-04-26 10:24 25.93921 47.74455 32394 ft 317 kts 227°
2026-04-26 10:25 25.90461 47.71358 32505 ft 323 kts 226°
2026-04-26 10:25 25.86872 47.68286 32634 ft 328 kts 225°
2026-04-26 10:26 25.85040 47.66773 32756 ft 329 kts 224°
2026-04-26 10:26 25.83186 47.65280 32891 ft 329 kts 224°
2026-04-26 10:26 25.79419 47.62354 33077 ft 332 kts 223°
2026-04-26 10:27 25.75557 47.59496 33260 ft 335 kts 221°
2026-04-26 10:27 25.72251 47.57157 33401 ft 338 kts 221°
2026-04-26 10:28 25.68224 47.54435 33591 ft 340 kts 219°
2026-04-26 10:28 25.64141 47.51811 33755 ft 343 kts 219°
2026-04-26 10:29 25.59943 47.49247 33908 ft 346 kts 218°
2026-04-26 10:29 25.55662 47.46765 34064 ft 349 kts 216°
2026-04-26 10:30 25.51634 47.44546 34194 ft 351 kts 216°
2026-04-26 10:30 25.47515 47.42390 34319 ft 353 kts 214°
2026-04-26 10:31 25.43084 47.40191 34436 ft 356 kts 213°
2026-04-26 10:31 25.38588 47.38082 34550 ft 359 kts 213°
2026-04-26 10:32 25.36345 47.36820 34204 ft 363 kts 222°
2026-04-26 10:32 25.34382 47.35164 34185 ft 356 kts 231°
2026-04-26 10:32 25.31482 47.30833 34056 ft 351 kts 253°
2026-04-26 10:33 25.30931 47.28222 34048 ft 350 kts 267°
2026-04-26 10:33 25.30937 47.25518 34048 ft 354 kts 272°
2026-04-26 10:33 25.31311 47.20077 34051 ft 363 kts 274°
2026-04-26 10:34 25.31750 47.14452 34054 ft 372 kts 274°
2026-04-26 10:34 25.32201 47.08695 34054 ft 380 kts 274°
2026-04-26 10:35 25.32661 47.02804 34054 ft 389 kts 274°
2026-04-26 10:35 25.33127 46.96781 34056 ft 397 kts 272°
2026-04-26 10:36 25.32324 46.90736 34054 ft 406 kts 250°
2026-04-26 10:36 25.29242 46.85387 34053 ft 420 kts 236°
2026-04-26 10:37 25.25420 46.80442 34054 ft 425 kts 235°
2026-04-26 10:37 25.21548 46.75482 34047 ft 427 kts 235°
2026-04-26 10:38 25.17691 46.70470 34039 ft 428 kts 235°
2026-04-26 10:38 25.13839 46.65449 34036 ft 429 kts 235°
2026-04-26 10:39 25.09973 46.60414 34033 ft 430 kts 235°
2026-04-26 10:39 25.06132 46.55418 34037 ft 430 kts 235°
2026-04-26 10:40 25.02253 46.50378 34040 ft 431 kts 235°
2026-04-26 10:40 24.98375 46.45344 34046 ft 431 kts 235°
2026-04-26 10:41 24.94491 46.40308 34053 ft 431 kts 235°
2026-04-26 10:41 24.90608 46.35278 34063 ft 432 kts 235°
2026-04-26 10:42 24.86716 46.30242 34063 ft 432 kts 235°
2026-04-26 10:42 24.82823 46.25211 34062 ft 432 kts 235°
2026-04-26 10:43 24.78922 46.20174 34060 ft 432 kts 235°
2026-04-26 10:43 24.75023 46.15144 34059 ft 432 kts 235°
2026-04-26 10:44 24.71143 46.10091 34054 ft 430 kts 239°
2026-04-26 10:44 24.68340 46.04392 34049 ft 422 kts 249°
2026-04-26 10:45 24.65879 45.98526 34047 ft 422 kts 249°
2026-04-26 10:45 24.63448 45.92655 34044 ft 423 kts 249°
2026-04-26 10:46 24.61017 45.86767 34039 ft 423 kts 249°
2026-04-26 10:46 24.58588 45.80894 34037 ft 422 kts 249°
2026-04-26 10:47 24.56153 45.75016 34032 ft 422 kts 249°
2026-04-26 10:47 24.53716 45.69140 34032 ft 422 kts 249°
2026-04-26 10:48 24.51279 45.63271 34027 ft 422 kts 249°
2026-04-26 10:48 24.48856 45.57444 34026 ft 422 kts 249°
2026-04-26 10:49 24.46400 45.51546 34025 ft 422 kts 249°
2026-04-26 10:49 24.43974 45.45727 34019 ft 422 kts 249°
2026-04-26 10:50 24.41924 45.40816 34021 ft 422 kts 249°
2026-04-26 10:50 24.39080 45.34013 34022 ft 422 kts 249°
2026-04-26 10:51 24.35384 45.25185 34021 ft 422 kts 249°
2026-04-26 10:52 24.32929 45.19331 34020 ft 423 kts 249°
2026-04-26 10:52 24.30471 45.13479 34023 ft 423 kts 249°
2026-04-26 10:53 24.28015 45.07637 34028 ft 422 kts 249°
2026-04-26 10:53 24.25552 45.01789 34024 ft 422 kts 249°
2026-04-26 10:54 24.21876 44.93072 34026 ft 422 kts 249°
2026-04-26 10:54 24.19415 44.87245 34029 ft 421 kts 249°
2026-04-26 10:55 24.16951 44.81421 34033 ft 421 kts 249°
2026-04-26 10:55 24.14889 44.76552 34031 ft 421 kts 249°
2026-04-26 10:56 24.12028 44.69804 34028 ft 420 kts 250°
2026-04-26 10:56 24.09567 44.64010 34031 ft 420 kts 250°
2026-04-26 10:57 24.07135 44.58299 34039 ft 400 kts 250°
2026-04-26 10:57 24.05981 44.55601 34043 ft 385 kts 250°
2026-04-26 10:57 24.04862 44.52976 34031 ft 381 kts 250°
2026-04-26 10:58 24.02607 44.47659 34025 ft 389 kts 250°
2026-04-26 10:58 24.00315 44.42278 34021 ft 390 kts 250°
2026-04-26 10:59 23.98018 44.36903 34017 ft 390 kts 250°
2026-04-26 10:59 23.95716 44.31521 34017 ft 391 kts 250°
2026-04-26 11:00 23.93410 44.26134 34011 ft 391 kts 250°
2026-04-26 11:00 23.91101 44.20749 34007 ft 391 kts 250°
2026-04-26 11:01 23.88457 44.15539 34061 ft 389 kts 250°
2026-04-26 11:01 23.86361 44.10120 34060 ft 387 kts 252°
2026-04-26 11:02 23.84193 44.04720 34060 ft 389 kts 250°
2026-04-26 11:02 23.81910 43.99361 34064 ft 390 kts 250°
2026-04-26 11:03 23.79600 43.94008 34068 ft 390 kts 250°
2026-04-26 11:03 23.77997 43.88425 34074 ft 385 kts 259°
2026-04-26 11:04 23.76676 43.82762 34088 ft 385 kts 259°
2026-04-26 11:04 23.75385 43.77084 34091 ft 385 kts 259°
2026-04-26 11:05 23.74112 43.71429 34088 ft 383 kts 259°
2026-04-26 11:05 23.72838 43.65781 34092 ft 384 kts 259°
2026-04-26 11:06 23.71777 43.61089 34093 ft 383 kts 259°
2026-04-26 11:06 23.70281 43.54485 34092 ft 384 kts 259°
2026-04-26 11:07 23.69004 43.48865 34101 ft 384 kts 259°
2026-04-26 11:07 23.67731 43.43275 34101 ft 369 kts 259°
2026-04-26 11:08 23.66512 43.37901 34097 ft 361 kts 260°
2026-04-26 11:08 23.65314 43.32635 34103 ft 353 kts 259°
2026-04-26 11:09 23.64137 43.27484 34103 ft 346 kts 259°
2026-04-26 11:09 23.62982 43.22445 34110 ft 339 kts 259°
2026-04-26 11:10 23.61850 43.17515 34110 ft 332 kts 259°
2026-04-26 11:10 23.60927 43.13499 34109 ft 325 kts 259°
2026-04-26 11:11 23.59838 43.08770 34109 ft 318 kts 259°
2026-04-26 11:11 23.58775 43.04157 34110 ft 310 kts 259°
2026-04-26 11:12 23.57740 42.99670 34106 ft 301 kts 259°
2026-04-26 11:12 23.57154 42.97475 34005 ft 306 kts 255°
2026-04-26 11:12 23.56503 42.95252 33919 ft 310 kts 257°
2026-04-26 11:13 23.55901 42.92964 33714 ft 319 kts 258°
2026-04-26 11:13 23.55324 42.90604 33653 ft 323 kts 259°
2026-04-26 11:13 23.54778 42.88231 33802 ft 324 kts 260°
2026-04-26 11:13 23.54269 42.85824 33789 ft 328 kts 261°
2026-04-26 11:14 23.53135 42.80924 33964 ft 333 kts 253°
2026-04-26 11:14 23.51373 42.76226 34019 ft 336 kts 252°
2026-04-26 11:15 23.49586 42.71491 34023 ft 340 kts 253°
2026-04-26 11:15 23.47817 42.66686 34020 ft 343 kts 253°
2026-04-26 11:16 23.46050 42.61861 34026 ft 347 kts 253°
2026-04-26 11:16 23.44249 42.56951 34026 ft 351 kts 252°
2026-04-26 11:17 23.42431 42.51998 34031 ft 355 kts 252°
2026-04-26 11:17 23.40588 42.46985 34019 ft 358 kts 252°
2026-04-26 11:18 23.38724 42.41921 34029 ft 362 kts 252°
2026-04-26 11:18 23.36838 42.36803 34021 ft 366 kts 252°
2026-04-26 11:19 23.34936 42.31646 34025 ft 369 kts 252°
2026-04-26 11:19 23.33013 42.26441 34035 ft 373 kts 252°
2026-04-26 11:20 23.31385 42.22035 34025 ft 376 kts 252°
2026-04-26 11:20 23.29107 42.15879 34029 ft 379 kts 252°
2026-04-26 11:21 23.27124 42.10529 34018 ft 383 kts 252°
2026-04-26 11:21 23.25125 42.05141 34020 ft 386 kts 252°
2026-04-26 11:22 23.23111 41.99719 34028 ft 388 kts 251°
2026-04-26 11:22 23.21079 41.94255 34035 ft 391 kts 251°
2026-04-26 11:23 23.19030 41.88753 34032 ft 394 kts 251°
2026-04-26 11:23 23.16968 41.83222 34030 ft 396 kts 251°
2026-04-26 11:24 23.14891 41.77660 34030 ft 398 kts 251°
2026-04-26 11:24 23.12802 41.72071 34037 ft 400 kts 251°
2026-04-26 11:25 23.10701 41.66459 34037 ft 402 kts 251°
2026-04-26 11:25 23.08586 41.60816 34041 ft 404 kts 251°
2026-04-26 11:26 23.06464 41.55158 34046 ft 406 kts 251°
2026-04-26 11:26 23.04329 41.49474 34045 ft 407 kts 251°
2026-04-26 11:27 23.02188 41.43782 34048 ft 408 kts 251°
2026-04-26 11:27 23.00039 41.38076 34049 ft 409 kts 251°
2026-04-26 11:28 22.97883 41.32362 34050 ft 410 kts 251°
2026-04-26 11:28 22.95740 41.26687 34047 ft 411 kts 251°
2026-04-26 11:29 22.93550 41.20894 34048 ft 411 kts 250°
2026-04-26 11:29 22.91378 41.15155 34051 ft 411 kts 250°
2026-04-26 11:30 22.89570 41.10386 34052 ft 412 kts 250°
2026-04-26 11:30 22.87020 41.03661 34050 ft 412 kts 250°
2026-04-26 11:31 22.84427 40.98085 34044 ft 417 kts 242°
2026-04-26 11:31 22.81245 40.92802 34051 ft 418 kts 241°
2026-04-26 11:32 22.78081 40.87510 34045 ft 419 kts 240°
2026-04-26 11:32 22.74901 40.82205 34044 ft 421 kts 240°
2026-04-26 11:33 22.71717 40.76903 34042 ft 422 kts 240°
2026-04-26 11:33 22.68490 40.71538 34046 ft 423 kts 240°
2026-04-26 11:34 22.65271 40.66190 34050 ft 424 kts 240°
2026-04-26 11:34 22.62053 40.60849 34053 ft 424 kts 240°
2026-04-26 11:35 22.58823 40.55494 34054 ft 424 kts 240°
2026-04-26 11:35 22.56117 40.51010 34060 ft 425 kts 240°
2026-04-26 11:36 22.52359 40.44792 34067 ft 425 kts 240°
2026-04-26 11:36 22.49124 40.39445 34072 ft 425 kts 240°
2026-04-26 11:37 22.45886 40.34098 34076 ft 425 kts 240°
2026-04-26 11:37 22.42645 40.28750 34079 ft 425 kts 240°
2026-04-26 11:38 22.39400 40.23404 34076 ft 425 kts 240°
2026-04-26 11:38 22.36151 40.18055 34071 ft 426 kts 240°
2026-04-26 11:39 22.32899 40.12707 34061 ft 426 kts 240°
2026-04-26 11:39 22.29640 40.07352 34050 ft 427 kts 240°
2026-04-26 11:40 22.26378 40.01997 34037 ft 427 kts 240°
2026-04-26 11:40 22.23096 39.96640 33975 ft 429 kts 237°
2026-04-26 11:42 21.99718 39.90767 33688 ft 474 kts 189°
2026-04-26 11:43 21.96494 39.90325 33653 ft 463 kts 200°
2026-04-26 11:43 21.93499 39.89212 33605 ft 449 kts 211°
2026-04-26 11:43 21.90834 39.87542 33512 ft 438 kts 221°
2026-04-26 11:43 21.88547 39.85417 33344 ft 432 kts 231°
2026-04-26 11:44 21.86703 39.82948 33132 ft 427 kts 240°
2026-04-26 11:44 21.85277 39.80117 32944 ft 424 kts 249°
2026-04-26 11:44 21.84357 39.77112 32735 ft 422 kts 257°
2026-04-26 11:44 21.83639 39.74043 32550 ft 423 kts 257°
2026-04-26 11:45 21.82908 39.70973 32364 ft 424 kts 256°
2026-04-26 11:45 21.82173 39.67901 32202 ft 424 kts 256°
2026-04-26 11:45 21.81435 39.64827 32043 ft 424 kts 256°
2026-04-26 11:45 21.80698 39.61754 31877 ft 425 kts 256°
2026-04-26 11:46 21.80000 39.58662 31714 ft 425 kts 261°
2026-04-26 11:46 21.79745 39.55502 31545 ft 425 kts 271°
2026-04-26 11:46 21.79908 39.52331 31392 ft 425 kts 272°
2026-04-26 11:46 21.80092 39.49155 31248 ft 425 kts 272°
2026-04-26 11:47 21.80287 39.45977 31110 ft 426 kts 273°
2026-04-26 11:47 21.80472 39.43072 30980 ft 426 kts 273°
2026-04-26 11:47 21.80677 39.39893 30842 ft 426 kts 273°
2026-04-26 11:47 21.80884 39.36713 30695 ft 426 kts 273°
2026-04-26 11:48 21.81091 39.33534 30557 ft 426 kts 273°
2026-04-26 11:48 21.81296 39.30344 30177 ft 432 kts 273°
2026-04-26 11:48 21.81502 39.27093 29650 ft 438 kts 273°
2026-04-26 11:48 21.81709 39.23799 28963 ft 446 kts 272°
2026-04-26 11:49 21.81856 39.20467 28411 ft 443 kts 270°
2026-04-26 11:49 21.81803 39.17165 27214 ft 444 kts 260°
2026-04-26 11:49 21.80793 39.14021 25854 ft 450 kts 242°
2026-04-26 11:49 21.79006 39.11242 23921 ft 456 kts 230°
2026-04-26 11:50 21.76915 39.08639 22132 ft 458 kts 230°
2026-04-26 11:50 21.74818 39.06107 20871 ft 447 kts 227°
2026-04-26 11:50 21.72602 39.03806 19569 ft 439 kts 222°
2026-04-26 11:50 21.70217 39.01802 18440 ft 431 kts 216°
2026-04-26 11:51 21.68526 39.00700 17656 ft 430 kts 208°
2026-04-26 11:51 21.65738 38.99618 16772 ft 423 kts 195°
2026-04-26 11:51 21.62827 38.99261 15746 ft 422 kts 182°
2026-04-26 11:51 21.59922 38.99671 14705 ft 423 kts 168°
2026-04-26 11:52 21.57194 39.00838 13693 ft 424 kts 153°
2026-04-26 11:52 21.54825 39.02710 12689 ft 423 kts 138°
2026-04-26 11:52 21.52918 39.05088 11770 ft 417 kts 131°
2026-04-26 11:52 21.50974 39.07331 10902 ft 406 kts 140°
2026-04-26 11:53 21.48751 39.09105 10319 ft 389 kts 150°
2026-04-26 11:53 21.46446 39.10443 9934 ft 369 kts 156°
2026-04-26 11:53 21.44134 39.11523 9519 ft 353 kts 160°
2026-04-26 11:54 21.39719 39.13297 8675 ft 326 kts 162°
2026-04-26 11:54 21.37622 39.14106 8265 ft 315 kts 162°
2026-04-26 11:54 21.35597 39.14887 7857 ft 305 kts 162°
2026-04-26 11:54 21.33629 39.15650 7452 ft 296 kts 162°
2026-04-26 11:55 21.31723 39.16390 7056 ft 288 kts 162°
2026-04-26 11:55 21.29873 39.17112 6667 ft 280 kts 162°
2026-04-26 11:55 21.28061 39.17821 6280 ft 271 kts 162°
2026-04-26 11:55 21.26341 39.18493 5870 ft 255 kts 162°
2026-04-26 11:56 21.24702 39.19132 5452 ft 250 kts 161°
2026-04-26 11:56 21.23098 39.19864 5056 ft 253 kts 149°
2026-04-26 11:56 21.21955 39.21276 4577 ft 258 kts 112°
2026-04-26 11:56 21.21850 39.23191 3673 ft 268 kts 74°
2026-04-26 11:57 21.22953 39.24785 2901 ft 270 kts 26°
2026-04-26 11:57 21.24626 39.25191 3088 ft 226 kts
2026-04-26 11:57 21.26019 39.25706 2850 ft 211 kts 35°
2026-04-26 11:57 21.27302 39.26721 2634 ft 241 kts 38°
2026-04-26 11:58 21.28690 39.27765 3166 ft 256 kts 30°
2026-04-26 11:58 21.30457 39.28313 3408 ft 276 kts 359°
2026-04-26 11:58 21.32310 39.27906 3278 ft 265 kts 338°
2026-04-26 11:58 21.33951 39.27186 3062 ft 244 kts 335°
2026-04-26 11:59 21.35464 39.26518 2897 ft 225 kts 337°
2026-04-26 11:59 21.36895 39.25926 2612 ft 217 kts 338°
2026-04-26 11:59 21.38346 39.25371 2470 ft 230 kts 337°
2026-04-26 11:59 21.39922 39.24783 2515 ft 251 kts 339°
2026-04-26 12:00 21.41621 39.24148 2644 ft 267 kts 339°
2026-04-26 12:00 21.43451 39.23482 2592 ft 278 kts 340°
2026-04-26 12:00 21.45213 39.22834 2524 ft 263 kts 339°
2026-04-26 12:00 21.46926 39.22177 2374 ft 257 kts 333°
2026-04-26 12:01 21.48539 39.21403 2248 ft 255 kts 339°
2026-04-26 12:01 21.50221 39.20854 2176 ft 250 kts 343°
2026-04-26 12:01 21.51835 39.20264 2190 ft 241 kts 334°
2026-04-26 12:01 21.53348 39.19536 2156 ft 239 kts 335°
2026-04-26 12:02 21.54885 39.18957 1918 ft 229 kts 341°
2026-04-26 12:02 21.56365 39.18448 1630 ft 216 kts 339°
2026-04-26 12:02 21.57767 39.17934 1487 ft 213 kts 339°
2026-04-26 12:02 21.59147 39.17358 1172 ft 210 kts 334°
2026-04-26 12:03 21.60475 39.16838 949 ft 194 kts 336°
2026-04-26 12:03 21.61686 39.16340 911 ft 184 kts 334°
2026-04-26 12:03 21.62911 39.15857 745 ft 189 kts 336°
2026-04-26 12:03 21.64153 39.15360 639 ft 192 kts 336°
2026-04-26 12:04 21.65346 39.14735 529 ft 191 kts 325°
2026-04-26 12:04 21.66565 39.14109 238 ft 200 kts 340°
2026-04-26 12:04 21.67854 39.13642 26 ft 185 kts 338°
2026-04-26 12:04 21.68960 39.13203 23 ft 152 kts 343°
2026-04-26 12:05 21.69647 39.12920 21 ft 44 kts 341°
2026-04-26 12:05 21.69699 39.12903 22 ft 2 kts 345°
2026-04-26 12:05 21.69807 39.12872 23 ft 31 kts 345°
2026-04-26 12:05 21.70033 39.12790 26 ft 35 kts 339°
2026-04-26 12:06 21.70258 39.12723 25 ft 24 kts 14°
2026-04-26 12:06 21.70300 39.12806 28 ft 0 kts 76°
2026-04-26 12:11 21.70303 39.12878 23 ft 20 kts 110°
2026-04-26 12:12 21.70162 39.12944 23 ft 28 kts 161°
2026-04-26 12:12 21.69972 39.13024 24 ft 31 kts 158°
2026-04-26 12:12 21.69825 39.13081 23 ft 0 kts 161°
2026-04-26 12:14 21.69808 39.13087 24 ft 9 kts 161°
2026-04-26 12:14 21.69728 39.13117 24 ft 0 kts 161°
2026-04-26 12:15 21.69755 39.13107 26 ft 7 kts 161°
2026-04-26 12:16 21.69807 39.13088 24 ft 9 kts 161°
2026-04-26 12:16 21.69824 39.13082 23 ft 0 kts 161°
2026-04-26 12:17 21.69799 39.13091 25 ft 14 kts 161°
2026-04-26 12:17 21.69771 39.13101 24 ft 0 kts 162°
2026-04-26 12:18 21.69766 39.13102 24 ft 8 kts 162°
2026-04-26 12:18 21.69614 39.13160 23 ft 27 kts 158°
2026-04-26 12:18 21.69433 39.13235 23 ft 17 kts 159°
2026-04-26 12:19 21.69379 39.13344 27 ft 21 kts 65°
2026-04-26 12:19 21.69412 39.13485 25 ft 14 kts 137°
2026-04-26 12:19 21.69307 39.13534 24 ft 19 kts 162°
2026-04-26 12:19 21.69277 39.13544 24 ft 0 kts 162°
2026-04-26 12:20 21.69269 39.13547 24 ft 0 kts 163°
2026-04-26 12:20 21.69159 39.13582 26 ft 32 kts 165°
2026-04-26 12:20 21.69006 39.13689 27 ft 19 kts 114°
2026-04-26 12:20 21.68855 39.13751 26 ft 32 kts 147°
2026-04-26 12:21 21.68583 39.13863 26 ft 42 kts 161°
2026-04-26 12:21 21.68381 39.13924 24 ft 20 kts 170°
2026-04-26 12:21 21.68313 39.14019 28 ft 17 kts 59°
2026-04-26 12:21 21.68351 39.14142 26 ft 18 kts 73°
2026-04-26 12:22 21.68396 39.14273 26 ft 19 kts 65°
2026-04-26 12:22 21.68450 39.14411 28 ft 21 kts 69°
2026-04-26 12:22 21.68502 39.14561 29 ft 22 kts 71°
2026-04-26 12:22 21.68554 39.14721 30 ft 23 kts 70°
2026-04-26 12:23 21.68612 39.14891 30 ft 25 kts 69°
2026-04-26 12:23 21.68676 39.15071 30 ft 27 kts 70°
2026-04-26 12:23 21.68741 39.15263 30 ft 25 kts 69°
2026-04-26 12:23 21.68749 39.15287 30 ft 0 kts 70°
2026-04-26 12:30 21.68760 39.15320 29 ft 17 kts 70°
2026-04-26 12:30 21.68818 39.15485 30 ft 28 kts 69°
2026-04-26 12:30 21.68869 39.15668 30 ft 19 kts 95°
2026-04-26 12:31 21.68634 39.15792 31 ft 21 kts 161°
2026-04-26 12:31 21.68492 39.15845 32 ft 22 kts 161°
2026-04-26 12:31 21.68345 39.15910 32 ft 23 kts 160°
2026-04-26 12:31 21.68188 39.15969 31 ft 25 kts 161°
2026-04-26 12:32 21.68025 39.16035 33 ft 26 kts 160°
2026-04-26 12:32 21.67884 39.16089 33 ft 0 kts 161°
2026-04-26 12:33 21.67831 39.16109 33 ft 15 kts 161°
2026-04-26 12:33 21.67715 39.16152 32 ft 13 kts 161°
2026-04-26 12:33 21.67604 39.16195 34 ft 21 kts 160°
2026-04-26 12:33 21.67551 39.16215 34 ft 0 kts 160°
2026-04-26 12:34 21.67482 39.16242 34 ft 20 kts 160°
2026-04-26 12:34 21.67381 39.16283 34 ft 27 kts 158°
2026-04-26 12:34 21.67172 39.16369 35 ft 37 kts 161°
2026-04-26 12:34 21.66973 39.16445 36 ft 20 kts 156°
2026-04-26 12:35 21.66930 39.16464 36 ft 0 kts 157°
2026-04-26 12:35 21.66925 39.16466 36 ft 0 kts 157°
2026-04-26 12:35 21.66890 39.16531 36 ft 18 kts 83°
2026-04-26 12:35 21.66889 39.16701 38 ft 19 kts 101°
2026-04-26 12:36 21.66849 39.16810 40 ft 28 kts 127°
2026-04-26 12:36 21.66778 39.16888 41 ft 12 kts 142°
2026-04-26 12:36 21.66680 39.16935 41 ft 12 kts 141°
2026-04-26 12:36 21.66700 39.16968 42 ft 12 kts 46°
2026-04-26 12:37 21.66730 39.17022 43 ft 5 kts 75°
2026-04-26 12:37 21.66736 39.17041 44 ft 0 kts 72°